sat.trackr.live / text

‹ back to catalog

STARLINK-3873

NORAD 52467 · 2022-049S

PAYLOAD ACTIVE UNKNOWN

§ Identity

Operator
Country
US
Launch date
2022-05-06
Launch site
AFETR
Launch vehicle
Mass (kg)
RCS (m²)

Purposes: comms

External: N2YO · Heavens-Above · Gunter

§ Orbital elements

Epoch: 2026-05-25T04:08:05.743680Z

Period
95.44 min
Inclination
53.2139°
Eccentricity
0.0001176
Mean motion
15.08835028 rev/d
Perigee alt
538.9 km
Apogee alt
540.6 km
Semi-major
6,917.9 km
B*
3.7534e-5
RAAN
75.7762°
Arg perigee
65.8741°
Mean anomaly
294.2374°
Rev number
22,379

§ Raw data

STARLINK-38731 52467U 22049S   26145.17228870  .00000309  00000+0  37534-4 0  99912 52467  53.2139  75.7762 0001176  65.8741 294.2374 15.08835028223793

JSON: /api/v1/satellites/52467 · /tle

For live sub-satellite position, see the globe view (requires WebGL).

§ Visibility from observer

Set your observer location to see the next 7 days of passes ≥ 10°. The values pass through the URL so the page stays shareable.

No JS? Fill the form by hand. The geolocation button needs JavaScript.